Theta_e
346 345 345 345 345 347 348 349 350 350 351 351 353 353 352 353 352 353 351 346 344 346 346 345 344 344 342 341 341 341 342 343 343 344 346 346 347 348 348 348 347 344 343 343 342 342 342 343 343 343 344 344 344 345 345 344 343 343 343 343 341 340 341
347 346 345 346 346 347 348 349 349 351 351 352 352 352 352 353 352 352 350 346 342 343 345 345 345 344 342 343 342 340 341 342 343 345 347 346 346 347 348 347 346 344 344 343 342 342 343 343 344 343 345 345 345 345 345 345 345 347 348 346 343 341 342
347 347 346 346 346 347 348 349 349 350 350 351 351 351 352 352 352 352 350 346 343 343 344 344 344 344 344 345 345 342 342 342 343 345 346 345 345 347 347 346 345 344 344 344 344 344 343 344 344 344 344 345 344 344 345 345 345 346 348 349 346 342 343
348 348 346 346 347 346 347 349 349 349 349 349 349 350 351 352 352 351 350 348 344 342 344 344 344 343 344 346 346 345 344 344 344 345 345 344 345 346 345 344 344 344 343 344 345 346 346 345 346 347 346 345 344 343 343 343 342 343 344 347 346 344 345
348 349 347 346 347 347 347 348 348 348 348 348 348 349 349 351 351 350 351 350 346 343 343 344 345 344 343 344 345 345 346 346 345 345 345 344 345 345 344 343 344 345 345 345 346 347 348 348 348 349 348 346 344 342 342 341 341 341 340 341 342 343 345
350 349 347 346 346 347 347 347 348 347 348 347 348 349 349 349 350 350 351 351 348 344 344 345 345 344 343 344 345 346 346 346 346 345 345 345 344 345 344 343 345 346 347 349 350 349 349 349 348 348 348 347 344 342 341 341 341 340 339 339 339 340 343
351 350 348 346 346 347 347 347 348 347 347 347 347 349 349 348 349 349 350 351 349 346 345 345 345 344 344 345 345 346 346 346 346 345 345 346 345 345 345 345 346 348 348 349 352 352 351 350 350 349 348 347 346 343 341 341 341 340 339 340 340 339 343
351 351 349 347 345 346 347 346 347 347 347 347 347 348 348 348 349 350 350 350 350 349 346 345 345 344 344 345 345 346 346 346 346 346 346 346 345 345 347 346 347 350 350 349 351 352 352 352 351 350 349 347 346 344 342 342 342 341 339 339 340 340 341
351 350 348 347 346 345 346 346 346 347 347 348 348 348 348 349 349 350 350 350 350 351 348 344 344 345 344 344 345 346 347 347 347 347 347 346 346 346 347 348 349 351 351 351 352 352 351 351 351 351 351 349 345 342 341 343 346 345 342 340 341 340 339
350 348 346 346 345 345 346 346 346 346 346 348 348 348 349 348 349 350 350 350 350 350 350 346 344 344 344 344 345 345 346 347 347 347 347 347 348 349 349 349 351 352 352 353 354 353 352 352 351 351 351 348 344 341 340 344 348 350 347 343 343 342 341
350 349 348 347 345 345 345 345 346 346 346 348 348 347 348 348 349 350 350 350 350 349 350 349 345 343 344 345 345 345 346 346 346 347 348 349 350 352 352 351 352 352 353 354 354 353 352 353 352 352 351 349 345 342 343 347 350 352 351 348 346 346 346
351 349 349 349 346 345 346 345 346 347 347 347 347 347 348 348 349 349 349 350 350 349 351 350 345 341 342 345 345 345 345 345 345 345 347 349 351 353 353 353 354 353 352 353 353 354 353 353 353 353 351 350 349 346 348 350 351 352 352 351 350 348 347
352 351 350 349 347 346 347 346 345 347 348 347 347 347 348 348 349 350 350 349 350 349 350 349 345 340 339 342 345 346 345 345 344 345 346 347 350 353 354 354 354 354 353 353 353 354 354 353 353 354 353 352 353 351 351 351 351 351 352 352 352 350 349
349 350 349 349 347 346 348 347 345 346 347 347 348 348 348 349 349 349 350 349 349 350 350 349 346 343 341 341 343 346 345 345 346 345 345 346 348 351 354 354 354 354 354 354 353 353 354 353 353 353 353 354 354 353 353 352 351 351 351 351 351 351 352
348 348 347 348 350 350 350 349 345 344 345 346 348 349 349 350 349 349 349 349 349 349 349 349 348 346 345 344 344 345 344 343 344 345 345 347 348 351 354 355 354 354 354 354 353 353 353 353 353 353 353 353 353 354 353 353 351 350 350 348 348 351 352
349 350 348 347 349 352 351 349 347 346 345 344 345 348 349 349 349 349 349 349 350 349 349 349 348 347 346 346 346 346 346 345 344 344 346 348 349 351 353 354 353 354 353 352 352 352 352 352 353 353 353 353 353 353 354 353 352 351 351 349 349 351 352
347 349 349 348 348 350 351 349 348 349 350 348 347 347 347 347 348 348 349 349 350 351 350 349 348 347 346 346 346 347 348 347 345 346 347 347 349 350 351 352 352 352 351 349 348 349 350 351 352 352 353 352 352 353 354 353 351 350 350 351 351 351 351
346 347 347 347 348 348 349 350 349 348 349 351 352 351 349 349 348 347 347 348 347 349 350 350 348 347 347 347 348 348 348 348 347 348 348 348 349 350 349 350 350 350 350 349 347 347 347 348 349 351 352 352 352 352 352 351 351 350 350 350 351 351 351
346 346 346 346 347 346 346 348 349 349 347 348 351 352 353 353 351 348 346 346 346 346 349 350 349 347 347 348 348 348 348 348 348 348 348 349 349 349 349 349 348 348 348 347 347 347 347 346 347 349 351 352 351 350 350 349 350 350 350 350 351 351 351
345 345 346 345 346 346 346 346 348 349 348 347 347 347 351 354 353 351 348 345 343 345 348 351 350 348 348 348 348 348 348 348 348 348 348 348 349 349 349 349 349 348 347 346 346 346 347 347 347 347 349 350 349 349 349 349 350 349 349 350 351 350 351
344 345 345 345 346 346 347 346 346 347 348 348 347 346 350 353 354 354 353 349 345 345 348 349 349 348 348 347 348 349 348 348 348 348 348 348 349 349 349 349 349 348 347 346 345 345 345 347 347 346 347 348 349 349 348 348 349 348 348 349 350 350 350
344 344 345 346 346 345 345 345 344 345 346 347 347 349 351 352 353 354 354 353 351 349 348 347 347 348 348 348 349 350 350 349 349 349 349 349 349 350 350 350 349 349 348 347 346 345 345 345 346 346 346 347 347 347 348 348 347 346 346 348 348 348 349
344 344 344 344 344 344 344 344 344 344 344 345 347 348 348 349 351 352 353 353 354 353 351 350 349 348 346 347 349 349 349 350 350 350 350 350 351 351 350 350 350 349 349 349 348 347 346 346 347 347 347 347 347 347 347 347 347 346 346 347 347 346 346
343 343 343 343 343 343 344 344 343 343 344 344 345 346 346 346 346 349 350 350 351 352 352 353 353 351 349 348 348 348 348 348 348 350 351 352 352 351 349 349 349 349 348 349 349 349 348 348 348 348 348 348 347 347 347 347 347 348 348 348 347 347 346
342 342 342 342 342 343 343 343 344 343 344 344 344 345 344 343 342 344 346 347 347 348 349 351 352 352 352 352 350 350 350 349 348 349 352 354 353 350 346 345 346 346 346 347 348 349 349 349 348 348 348 348 349 348 348 347 346 346 347 349 349 348 347
340 340 340 340 341 342 342 343 343 343 344 344 344 343 342 341 341 341 343 344 345 345 345 346 349 351 352 352 351 350 350 349 348 349 352 353 352 349 347 347 347 347 347 345 345 347 349 349 347 346 344 345 348 348 348 347 346 343 341 343 347 349 348
338 338 338 339 339 340 341 342 342 342 341 342 342 342 342 341 341 341 342 343 343 342 341 342 345 347 349 350 350 350 351 350 350 350 351 352 351 350 349 349 351 352 350 347 344 344 346 347 346 345 343 343 344 346 346 346 344 342 339 339 344 347 347
338 338 337 337 337 338 338 339 339 339 339 339 340 340 341 341 341 342 343 341 340 339 338 339 342 345 346 348 348 349 349 350 349 349 350 350 351 350 349 350 351 352 352 350 348 347 348 347 347 346 345 344 344 345 346 346 345 345 344 343 346 347 347
337 337 337 337 336 336 336 336 336 337 337 338 339 340 340 340 341 341 342 340 340 339 339 339 342 343 344 345 346 347 347 348 347 348 349 349 350 350 349 350 350 351 352 351 351 351 351 350 349 349 349 347 347 348 348 348 348 348 347 347 348 348 348
335 336 336 335 335 334 334 334 333 334 336 337 337 337 338 339 340 340 340 340 340 341 340 340 341 341 340 341 343 345 345 346 346 346 346 347 348 348 348 348 349 350 351 350 350 351 351 350 350 349 349 348 348 349 348 347 347 346 345 345 346 346 347
333 334 334 333 333 332 332 332 333 334 335 335 334 333 334 335 337 337 336 337 337 339 340 340 340 341 340 341 342 343 344 344 344 344 344 345 345 345 346 347 349 348 348 348 348 347 348 349 348 347 346 345 345 346 345 344 343 342 342 343 343 344 344
332 332 332 331 331 330 330 331 331 333 334 333 332 331 330 330 331 332 332 332 333 335 336 337 338 339 338 339 341 342 343 342 340 340 340 342 343 342 343 344 345 344 342 342 341 340 341 344 344 342 341 342 341 341 341 341 340 338 338 339 340 341 341
331 331 330 329 329 329 329 329 330 331 332 332 332 331 330 329 329 330 331 330 330 329 329 330 332 333 333 334 336 338 339 339 337 336 336 336 338 339 340 340 341 340 340 339 338 337 337 338 337 336 336 337 337 337 337 336 335 333 332 334 334 335 336
330 330 329 329 328 328 328 328 328 329 331 331 330 330 330 330 330 331 332 331 330 329 328 327 328 329 328 329 330 331 332 332 332 333 332 332 332 333 335 335 335 335 335 333 333 332 330 330 330 330 330 330 330 331 330 328 327 326 325 326 326 326 326
330 330 329 329 328 328 327 327 327 327 328 329 328 328 329 330 330 331 331 330 329 329 329 328 328 328 327 326 326 326 326 326 326 326 327 328 330 330 331 331 330 330 330 328 327 327 326 326 326 326 325 324 323 324 323 322 321 320 318 317 317 316 316
330 330 330 329 329 328 327 326 326 326 326 327 327 327 328 330 330 331 331 330 329 328 328 329 329 328 327 327 326 326 326 325 325 323 323 324 326 328 329 330 330 330 330 330 330 330 328 328 328 327 326 325 324 324 323 320 317 317 316 314 313 312 311
330 330 330 329 328 328 327 327 326 326 325 325 326 326 326 327 328 330 330 329 328 327 327 328 330 329 328 327 327 327 327 326 326 324 323 323 323 323 325 327 328 329 331 331 329 328 326 326 328 328 326 324 324 326 325 323 321 321 322 319 315 311 310
330 330 330 329 328 328 327 327 326 326 325 324 325 325 325 325 326 327 329 329 328 327 327 327 328 328 327 326 326 327 327 326 325 324 324 323 322 321 321 321 320 322 326 328 326 324 323 324 327 328 327 325 325 326 327 326 325 325 325 323 317 311 310
Wind_Speed
23 26 33 33 35 39 39 38 36 33 31 29 30 30 28 28 27 25 24 26 27 26 25 24 24 24 24 24 23 22 22 22 21 21 20 19 20 19 17 16 16 16 16 15 15 15 14 14 14 14 13 13 13 13 14 14 14 13 12 12 12 11 11
24 26 33 33 34 39 40 39 37 35 32 30 30 31 30 29 28 26 24 25 26 26 25 25 25 24 24 24 23 22 22 22 21 20 19 19 19 19 17 16 16 16 15 15 14 15 15 15 14 14 13 13 14 13 13 14 13 13 12 12 12 11 11
26 26 33 35 34 38 40 39 38 36 34 32 31 31 30 30 28 26 25 25 25 25 25 26 26 25 24 24 23 23 23 22 20 18 19 18 19 19 18 17 16 15 15 15 15 15 15 15 15 14 13 13 13 12 12 13 13 13 12 12 11 11 10
29 26 31 36 35 36 39 40 39 37 34 33 31 30 30 30 28 26 25 25 25 25 26 26 26 25 25 25 24 24 23 22 20 18 18 18 18 18 18 17 17 16 15 15 15 15 16 16 16 15 13 13 13 13 12 12 13 13 13 13 12 11 10
31 27 28 35 36 36 39 40 39 38 36 33 32 31 30 29 28 26 25 25 25 25 25 25 26 26 26 25 24 24 23 22 21 19 19 18 18 17 18 17 17 17 16 16 15 16 16 16 16 15 13 13 13 13 14 13 13 13 13 13 13 12 11
31 29 27 35 39 38 39 41 40 38 36 35 34 33 32 29 27 26 24 24 25 25 25 25 25 26 26 25 24 24 24 23 22 21 20 19 18 18 18 17 17 17 17 16 15 15 16 16 15 14 13 13 13 14 15 14 13 15 14 14 14 13 13
27 27 26 32 40 40 39 40 41 40 37 35 35 34 33 30 27 26 24 24 25 26 26 26 26 26 25 25 25 24 24 24 23 22 21 19 19 18 18 18 18 17 17 16 15 15 15 16 16 15 14 14 13 14 15 14 13 15 15 14 14 14 14
25 22 21 27 36 41 41 41 41 41 39 36 37 37 34 31 28 27 25 24 24 25 26 26 26 25 25 25 24 24 24 23 23 22 21 20 20 19 18 18 18 17 17 17 15 15 15 16 16 16 15 15 15 15 14 13 13 14 15 14 14 14 14
15 6 4 12 24 31 38 44 42 40 40 38 38 37 34 31 30 28 26 25 24 24 25 26 26 25 25 25 25 24 23 23 23 22 22 21 20 19 19 18 17 16 17 16 14 14 16 16 15 15 15 15 17 17 14 12 11 11 12 13 13 13 13
10 2 2 3 12 16 24 38 43 40 40 40 39 37 34 32 30 28 28 27 25 24 23 25 26 26 25 25 25 24 23 23 22 22 22 22 20 19 19 18 16 16 17 15 13 13 14 15 14 14 15 16 18 18 16 14 12 9 10 11 12 12 12
20 18 13 10 13 14 16 28 40 42 41 41 40 37 35 33 31 30 29 28 26 23 22 24 26 27 26 25 25 25 24 23 22 22 22 22 21 19 17 16 15 16 17 16 15 13 12 13 14 15 15 16 16 16 15 14 13 12 12 11 11 11 11
26 27 26 21 19 18 16 23 35 39 41 41 39 38 37 34 32 31 30 28 26 23 21 22 25 27 27 26 25 25 24 23 23 23 23 23 22 20 18 17 16 16 18 18 17 16 14 14 14 14 14 14 13 15 15 14 14 14 14 12 12 12 12
21 25 28 27 25 19 13 19 31 37 38 39 39 38 37 36 34 32 31 29 26 24 21 20 22 25 27 27 26 26 25 24 23 23 23 23 23 22 21 21 20 19 18 19 20 19 18 16 15 14 14 13 13 14 15 16 17 16 16 16 15 15 13
7 11 16 22 26 23 16 18 29 36 35 36 38 38 37 37 35 33 32 30 27 26 24 22 21 22 24 25 25 25 26 25 23 22 22 23 23 22 22 22 21 20 19 20 21 22 21 18 16 16 15 16 16 15 15 17 18 19 18 17 16 16 15
2 2 7 11 14 16 16 19 27 36 36 32 34 37 37 37 36 34 32 31 29 28 27 25 24 23 23 24 24 24 24 23 22 21 21 21 22 22 22 20 20 20 19 18 21 23 23 21 19 19 18 18 18 17 16 16 16 17 17 17 16 16 16
1 3 12 15 10 6 8 12 19 27 30 30 31 35 37 36 37 37 36 35 33 31 30 29 27 25 24 24 24 23 22 21 20 20 20 20 20 20 21 20 19 19 18 17 18 21 22 22 22 22 21 19 18 16 16 16 16 16 16 15 15 15 16
5 3 11 18 16 9 6 8 10 11 14 19 23 29 34 36 37 37 37 36 37 36 35 33 31 29 27 25 24 24 23 22 20 19 19 20 20 20 21 21 21 20 19 17 17 17 18 19 21 23 22 20 18 17 17 17 16 15 15 15 15 15 15
9 6 4 9 9 6 3 5 9 11 12 14 14 17 25 31 35 38 35 33 34 35 38 38 35 32 30 29 27 27 26 24 22 21 20 21 21 22 21 21 22 22 22 20 18 18 18 18 19 21 23 22 20 19 19 18 16 15 15 15 15 15 15
8 7 3 3 5 5 5 6 5 14 19 18 14 13 14 15 24 37 39 34 30 30 36 40 38 35 33 31 30 30 28 26 24 23 22 22 23 23 23 23 23 24 23 21 20 21 21 20 19 20 23 24 22 21 20 17 15 15 15 14 14 14 15
8 6 5 4 4 6 9 9 7 12 18 20 21 20 13 5 11 27 35 34 30 28 33 39 38 35 33 30 30 30 29 27 26 25 24 25 25 26 25 24 24 24 25 23 21 21 23 23 21 21 22 23 22 22 21 19 18 17 15 14 14 14 15
9 5 6 7 4 2 3 5 6 10 13 15 20 24 18 6 7 15 21 25 27 28 32 36 36 34 32 29 29 30 30 29 29 28 26 26 27 28 28 26 24 23 24 24 22 22 22 24 25 23 23 23 23 24 23 22 20 19 17 16 15 15 16
12 8 7 6 4 3 3 2 3 8 9 8 12 18 18 12 10 13 16 20 24 28 31 34 35 34 31 29 30 31 30 30 29 28 27 26 26 28 28 27 25 22 21 22 23 22 23 24 26 26 25 25 25 26 25 24 22 20 18 17 16 16 17
13 12 9 7 6 5 5 5 3 4 5 6 7 9 11 12 13 16 18 18 21 25 30 32 34 35 35 33 32 30 30 30 29 28 27 27 27 28 28 28 27 25 23 22 22 23 23 25 26 26 25 25 25 26 25 24 22 21 20 20 18 18 19
13 13 12 11 10 9 9 8 5 4 4 6 7 5 4 5 7 10 14 14 13 16 22 26 27 29 32 33 31 30 30 30 30 30 31 30 31 30 29 29 29 28 27 26 24 24 24 25 26 27 26 25 25 25 24 23 23 22 22 22 20 20 20
14 14 13 13 12 10 10 10 9 9 8 6 7 5 1 3 3 4 6 6 6 6 10 15 20 23 23 24 27 28 29 29 30 33 33 31 31 32 31 32 32 31 31 31 30 28 28 28 28 29 28 27 26 26 25 25 24 22 22 22 22 21 22
13 13 12 11 11 10 9 9 10 10 9 8 7 5 1 3 4 3 3 3 3 2 1 3 15 23 22 21 24 27 28 30 32 34 33 30 29 31 33 35 35 35 35 36 35 34 34 34 33 32 31 30 29 28 28 28 27 26 25 24 24 23 23
11 12 12 11 11 10 8 6 6 6 6 7 6 4 3 4 5 5 6 6 6 5 4 3 6 15 18 19 23 25 26 28 30 31 31 29 29 30 31 33 36 36 36 37 38 38 38 37 36 35 34 33 32 31 31 31 31 31 30 28 27 26 26
10 10 10 11 12 11 9 7 6 6 7 7 6 5 5 4 6 8 8 7 6 5 4 5 3 8 12 15 17 19 21 22 24 25 25 25 27 28 28 30 34 34 33 35 37 39 39 39 37 36 35 34 33 33 32 31 31 31 30 30 30 30 29
12 11 9 8 10 11 10 9 9 10 10 10 9 7 5 3 5 8 7 6 6 6 5 6 6 6 8 10 11 13 15 18 19 18 17 19 21 23 23 25 27 29 30 32 34 37 37 37 36 35 33 32 32 31 29 27 27 25 24 25 27 28 29
14 13 10 7 7 8 9 9 8 8 8 9 10 10 8 6 6 8 9 9 10 9 6 5 7 7 7 8 9 9 12 14 14 12 11 12 12 13 16 20 22 24 27 29 32 35 33 30 29 30 29 27 26 26 25 23 22 21 20 21 23 25 27
12 12 10 8 7 6 6 6 6 5 5 5 7 8 9 9 8 10 12 12 11 9 6 4 5 6 7 7 8 8 9 10 10 9 9 9 9 9 12 19 23 22 23 25 27 26 25 24 23 23 22 20 20 21 21 19 18 17 17 19 20 22 24
10 9 8 8 7 5 5 5 4 4 5 6 7 7 8 8 9 11 13 12 10 8 6 5 5 6 6 5 5 7 8 6 4 4 5 7 9 9 12 16 18 16 15 15 14 13 15 18 19 18 16 16 15 14 13 13 12 11 12 15 16 17 17
8 8 7 6 6 4 3 3 3 4 6 8 9 8 8 9 10 11 12 12 10 8 7 7 7 7 8 8 8 7 6 4 3 4 6 7 8 9 10 10 10 10 9 7 6 7 10 14 14 13 13 13 12 10 9 8 8 9 9 11 12 12 12
6 6 5 4 4 3 3 3 4 5 7 9 9 8 8 10 10 10 9 9 9 8 7 8 9 9 9 10 10 9 7 6 6 5 5 6 7 8 7 6 7 7 7 6 6 6 8 9 9 9 8 8 8 8 7 7 7 6 5 6 7 8 8
6 5 4 4 3 3 4 4 4 5 7 8 8 6 7 9 9 10 9 7 6 6 6 7 8 8 9 9 8 8 7 6 6 5 4 4 5 6 8 8 7 6 6 7 7 7 6 4 3 3 5 6 6 6 6 6 6 5 4 4 5 5 5
6 6 6 5 5 5 6 5 4 4 6 7 7 6 7 8 9 9 9 7 6 5 6 7 8 8 8 9 8 7 7 6 5 5 4 4 4 4 6 7 7 6 6 7 8 7 6 3 1 3 5 5 6 7 7 6 6 5 4 3 3 3 4
7 7 8 8 9 9 8 6 5 6 6 7 8 7 7 7 8 9 9 8 7 6 7 9 10 9 8 7 7 6 6 5 4 4 3 4 3 3 5 7 7 7 7 7 7 6 4 3 3 2 3 3 4 4 5 4 4 2 1 1 0 2 3
7 8 9 10 10 10 10 8 7 7 8 8 9 8 8 8 8 8 9 8 7 7 8 9 11 10 8 6 6 6 6 5 4 3 2 2 2 2 5 7 7 8 9 8 6 6 5 4 5 5 5 5 5 4 3 4 4 3 3 3 2 2 4
Wind_Direction
200 197 189 187 187 185 186 186 186 187 190 192 195 199 202 203 204 204 202 202 202 200 198 196 196 196 194 194 196 200 205 208 208 207 210 212 212 212 214 211 207 202 199 202 203 198 194 193 193 193 191 193 192 185 183 187 186 183 180 182 184 184 190
203 200 192 190 189 187 187 188 188 188 190 194 196 199 203 205 206 205 203 202 202 201 199 198 198 198 197 196 196 198 203 207 207 207 210 211 210 211 213 212 208 205 203 205 204 200 197 196 195 196 195 194 194 190 189 192 191 190 189 186 185 186 191
204 201 193 191 191 189 189 189 190 190 192 195 198 201 205 208 209 208 204 203 203 202 201 200 201 201 199 198 197 198 201 205 204 203 208 210 207 208 212 212 210 208 205 203 203 201 200 197 195 197 200 198 197 194 194 197 198 200 199 196 194 194 198
205 204 197 193 192 192 191 191 192 193 194 197 199 203 208 210 211 210 208 206 204 203 202 202 203 203 203 201 200 200 201 203 202 200 203 205 203 205 210 211 209 208 205 203 202 202 202 199 195 198 202 204 204 203 201 202 204 206 203 203 204 203 206
206 206 202 197 193 192 192 192 194 195 196 197 200 203 207 210 211 211 211 210 208 206 204 204 204 205 205 204 204 204 203 203 203 201 201 202 201 204 209 209 208 209 206 202 201 203 203 200 199 201 202 206 211 209 206 206 209 212 210 210 211 207 209
205 207 203 197 194 193 194 194 195 197 197 197 199 202 205 208 210 210 211 210 209 207 206 205 205 205 206 206 206 206 206 205 204 203 203 203 203 206 209 208 208 210 209 204 201 206 209 209 210 210 207 209 215 211 206 208 213 215 214 214 214 210 210
203 209 206 198 196 196 196 195 195 196 198 198 199 201 203 206 209 210 211 210 208 207 207 205 205 206 206 206 206 207 207 206 205 204 204 204 205 207 208 209 210 211 211 211 210 210 214 218 221 222 221 219 223 219 209 207 214 218 214 211 212 209 209
208 214 214 204 199 198 197 195 193 194 196 197 198 199 201 204 206 208 210 211 209 207 208 207 205 206 207 205 205 206 207 207 206 205 205 207 208 208 209 211 211 210 211 213 216 217 218 220 221 224 228 229 230 229 218 210 214 220 217 211 213 215 213
204 207 229 206 198 197 195 193 192 192 194 196 198 198 200 202 205 208 211 212 210 209 210 210 208 207 207 205 205 205 206 208 208 206 206 208 209 208 209 212 211 211 211 210 214 220 221 222 222 223 229 230 228 227 223 213 211 220 222 213 213 220 221
196 170 38 204 199 203 200 193 192 193 193 194 196 197 199 202 206 209 210 212 213 213 213 212 210 209 208 206 205 205 206 207 208 207 207 207 205 205 209 212 211 211 210 208 214 223 225 228 232 232 231 225 221 223 224 215 209 222 234 222 215 220 225
209 211 213 214 203 211 217 198 192 193 194 194 196 197 199 203 207 210 211 212 213 216 217 215 212 210 210 208 206 206 206 207 208 208 208 206 202 203 207 208 206 208 209 211 218 227 230 231 233 234 230 222 217 218 220 218 219 226 236 236 229 225 224
208 211 213 213 200 201 218 206 193 191 193 195 198 200 200 202 206 210 212 211 212 216 217 215 213 211 210 209 208 208 208 207 207 208 210 209 204 204 207 207 206 207 207 212 223 229 230 231 232 232 230 225 220 217 216 221 228 230 236 244 243 236 228
206 208 210 208 197 193 211 209 196 191 192 195 198 201 203 204 206 208 210 210 212 216 215 211 209 210 210 210 209 210 211 209 207 208 210 211 208 205 206 209 212 211 209 214 222 227 226 226 230 233 233 231 230 229 226 229 234 235 239 244 243 240 235
205 205 204 200 194 195 211 219 202 193 193 196 197 199 202 204 207 208 209 210 211 214 214 211 209 207 208 209 208 210 213 212 210 210 209 211 212 208 206 210 213 214 215 217 220 224 225 224 226 231 234 233 234 236 236 236 237 236 238 240 237 234 234
44 121 161 179 189 198 214 222 205 195 197 200 197 197 198 201 206 208 209 211 212 214 215 214 211 208 204 204 205 208 212 213 214 214 211 210 210 208 208 213 217 217 219 220 219 222 224 224 226 230 232 232 231 234 238 239 237 234 234 235 232 230 234
25 159 164 175 189 206 215 212 198 192 197 203 203 202 199 199 204 207 209 211 210 212 216 215 213 209 205 204 204 206 208 210 212 212 210 209 209 207 208 213 220 222 224 224 222 223 224 225 229 232 231 230 228 231 236 238 237 235 233 234 232 231 235
347 265 192 188 194 205 216 211 192 173 176 189 199 204 204 206 209 208 207 208 208 209 211 213 212 209 207 207 206 207 209 209 206 204 205 207 207 208 209 212 218 225 229 230 227 227 227 228 231 232 232 233 231 230 232 235 236 236 234 233 234 234 236
3 340 250 214 212 220 259 244 203 185 178 177 180 191 201 210 214 210 206 205 208 210 211 211 211 208 207 208 208 209 209 208 206 205 206 209 210 212 214 216 219 223 228 231 231 231 230 228 229 231 231 233 233 231 233 235 236 235 235 236 236 236 238
28 23 359 290 277 260 291 311 228 199 202 202 194 189 191 201 209 210 208 206 209 213 213 211 209 206 206 209 211 211 210 209 209 210 211 213 214 217 221 222 224 225 227 228 230 232 233 230 229 229 228 229 230 231 235 237 237 236 237 238 238 239 240
56 58 59 35 337 266 258 276 251 210 211 213 211 208 207 192 194 203 207 209 211 214 210 207 207 207 208 210 212 212 210 209 210 213 215 217 217 220 224 226 228 228 228 227 226 229 231 230 230 229 227 227 229 233 237 238 237 238 239 239 240 242 241
58 79 95 85 51 348 281 273 230 205 206 211 212 212 209 194 172 187 191 197 207 214 209 205 205 206 207 210 213 213 212 212 213 216 219 220 220 222 226 229 231 231 230 227 225 228 230 229 230 231 230 231 233 235 238 237 237 238 237 237 239 241 241
62 78 98 100 83 61 27 17 172 183 191 200 210 209 201 188 182 181 175 179 193 201 203 203 203 204 206 208 209 209 211 214 217 220 224 225 224 224 227 231 232 230 226 223 224 228 230 229 230 233 235 235 235 235 236 235 237 239 237 234 236 238 240
70 76 86 89 93 101 87 64 82 144 167 190 214 209 191 186 189 182 174 181 190 191 194 198 200 202 207 209 208 210 212 215 219 222 226 228 226 226 228 231 232 229 225 223 223 226 228 228 230 232 233 232 231 230 231 231 234 239 240 239 238 239 240
75 79 84 84 89 101 98 82 60 64 111 172 199 192 149 159 186 178 169 174 183 188 196 199 198 202 207 207 209 216 221 224 227 229 229 229 227 228 232 232 233 234 233 231 230 228 227 227 227 229 229 229 229 229 231 233 237 240 242 242 240 240 241
79 83 82 77 77 84 87 84 80 75 82 125 165 181 123 87 129 170 167 164 172 191 206 208 207 213 217 210 211 220 227 231 235 237 237 235 231 231 234 235 235 235 236 236 238 237 236 234 233 234 236 237 237 238 239 241 242 243 244 244 243 241 241
78 80 79 71 65 62 61 69 84 90 87 97 129 164 294 39 86 138 153 119 122 132 71 213 215 220 224 221 221 227 231 233 236 239 241 243 239 235 235 235 235 232 229 232 236 240 241 241 241 242 243 244 244 245 245 246 246 246 247 248 247 243 241
84 80 77 74 70 66 64 65 75 89 81 67 77 96 78 68 91 125 130 114 113 125 93 70 213 220 222 221 222 227 232 235 237 240 242 244 243 241 238 236 235 230 226 227 232 236 239 241 243 243 243 244 245 246 248 249 250 250 249 248 246 244 241
100 92 85 81 77 73 71 67 57 60 66 55 40 50 74 105 123 122 120 112 98 97 98 92 147 214 220 219 220 226 234 239 243 245 246 244 244 243 242 239 237 234 230 229 232 235 237 238 240 241 240 241 243 244 245 246 247 246 243 240 239 238 236
118 119 113 91 77 68 59 54 47 41 49 56 56 56 62 92 122 122 120 112 93 84 91 115 137 174 208 219 220 222 229 239 247 251 249 245 243 242 244 245 243 239 235 233 233 235 234 234 235 236 236 235 236 238 239 240 241 241 238 237 238 235 232
126 131 128 103 80 64 49 48 45 37 40 51 58 61 61 61 84 105 105 99 98 98 103 126 145 164 199 220 221 217 221 233 244 248 244 240 235 229 231 235 234 232 234 237 236 233 229 228 228 229 229 227 227 231 235 236 240 242 243 245 246 243 239
131 132 127 112 95 71 47 46 54 58 62 63 60 61 62 62 72 89 94 95 100 107 110 119 143 162 182 207 222 228 230 230 234 236 232 230 227 212 207 216 220 218 219 225 227 221 216 218 222 221 220 219 219 225 231 235 241 246 246 246 245 246 245
135 130 122 113 101 82 62 62 73 90 99 95 92 86 79 78 86 92 95 97 98 106 116 124 132 134 133 145 185 215 228 227 214 190 177 190 204 200 194 203 211 210 204 206 208 196 189 200 209 207 205 207 207 210 217 225 234 238 238 238 235 234 241
142 137 130 121 112 107 108 100 101 124 129 119 115 109 102 102 105 105 107 107 100 97 102 110 115 113 108 112 128 151 172 168 135 114 118 136 159 174 177 182 191 197 194 180 165 152 158 173 180 177 179 187 188 187 194 204 214 217 217 221 220 218 227
171 164 161 151 139 147 163 152 140 149 151 142 130 122 123 125 123 124 127 124 120 118 111 105 110 114 112 115 122 128 132 129 118 109 109 120 135 147 153 153 159 171 167 142 130 132 138 148 158 158 161 167 163 162 171 178 183 189 192 196 197 199 208
212 200 196 190 184 195 198 181 166 169 170 163 152 143 145 148 147 149 150 142 140 151 142 124 127 133 128 123 123 126 126 120 113 105 103 117 135 139 139 141 145 151 148 135 128 121 117 126 148 133 130 141 140 139 148 156 157 157 159 169 175 177 188
226 223 219 218 220 213 204 198 198 197 189 183 182 176 166 166 169 169 166 156 147 160 167 161 162 163 148 133 130 133 131 125 118 107 102 123 159 166 156 153 155 160 160 152 142 131 119 117 108 93 104 124 136 136 136 136 136 135 128 137 172 182 190
231 232 222 214 210 207 206 214 227 229 220 209 204 201 198 195 192 185 181 171 156 155 168 175 178 178 167 152 147 148 150 153 148 127 105 110 136 173 188 187 184 182 179 174 172 172 168 165 175 165 146 148 150 143 140 146 153 154 106 46 348 210 200
230 234 231 223 216 214 215 222 233 241 240 229 219 218 223 224 218 209 203 197 182 171 174 182 186 183 176 171 166 163 168 172 160 138 112 75 80 164 197 205 206 200 196 195 200 206 198 178 177 190 196 195 200 210 214 212 221 250 289 319 312 258 217